Printer-friendly version

IAU Minor Planet Center

Minor Planet Center

MPEC 2007-B36 : 2007 BD7

The following Minor Planet Electronic Circular may be linked-to from your own Web pages, but must not otherwise be redistributed electronically.


Read MPEC 2007-B35 Read MPEC 2007-B37


M.P.E.C. 2007-B36                                Issued 2007 Jan. 24, 12:07 UT

     The Minor Planet Electronic Circulars contain information on unusual
         minor planets and routine data on comets.  They are published
   on behalf of Commission 20 of the International Astronomical Union by the
          Minor Planet Center, Smithsonian Astrophysical Observatory,
                          Cambridge, MA 02138, U.S.A.

             Prepared using the Tamkin Foundation Computer Network

                              MPC@CFA.HARVARD.EDU
          URL http://cfa-www.harvard.edu/iau/mpc.html  ISSN 1523-6714

                                   2007 BD7

Observations:
     K07B07D* C2007 01 23.17539 08 08 18.28 +49 48 09.2          17.6 R EB036699
     K07B07D  C2007 01 23.20123 08 08 13.03 +49 50 00.8                 EB036699
     K07B07D  C2007 01 23.22710 08 08 07.65 +49 51 53.1                 EB036699
     K07B07D  C2007 01 23.25300 08 08 02.23 +49 53 43.3                 EB036699
     K07B07D  C2007 01 23.75531 08 06 31.90 +50 28 31.0                 EB036J95
     K07B07D  C2007 01 23.75722 08 06 31.54 +50 28 39.6                 EB036J95
     K07B07D  C2007 01 23.76381 08 06 30.29 +50 29 10.0                 EB036J95
     K07B07D  C2007 01 23.76567 08 06 29.93 +50 29 18.2          17.7 R EB036J95
     K07B07D 5C2007 01 24.18223 08 04 57.69 +51 00 18.3          17.3 R EB036012
     K07B07D 5C2007 01 24.18411 08 04 57.30 +51 00 26.4          17.4 R EB036012
     K07B07D 5C2007 01 24.18561 08 04 56.96 +51 00 32.7          17.8 R EB036012
     K07B07D 5C2007 01 24.18712 08 04 56.67 +51 00 38.8          17.5 R EB036012
     K07B07D 5C2007 01 24.18862 08 04 56.33 +51 00 45.8          17.5 R EB036012
     K07B07D 5C2007 01 24.19013 08 04 56.00 +51 00 52.7          17.6 R EB036012
     K07B07D 5C2007 01 24.19164 08 04 55.61 +51 00 59.4          18.0 R EB036012
     K07B07D  C2007 01 24.19282 08 05 04.27 +51 01 42.6          18.0 R EB036854
     K07B07D 5C2007 01 24.19315 08 04 55.33 +51 01 05.6          17.8 R EB036012
     K07B07D  C2007 01 24.19474 08 05 03.81 +51 01 51.7          18.0 R EB036854
     K07B07D  C2007 01 24.19667 08 05 03.38 +51 02 00.9          18.0 R EB036854
     K07B07D 2C2007 01 24.39226 08 04 14.28 +51 16 56.9          17.3 R EB036H06
     K07B07D 2C2007 01 24.39740 08 04 13.05 +51 17 19.9          17.3 R EB036H06
     K07B07D 2C2007 01 24.40263 08 04 11.67 +51 17 43.3          17.4 R EB036H06

Observer details:
012 Uccle.  Observer P. De Cat.  0.85-m f/2.5 Schmidt + 3Kx2K CCD.
699 Lowell Observatory-LONEOS.  Observer B. A. Skiff.  0.59-m LONEOS Schmidt
    + CCD.
854 Sabino Canyon Observatory, Tucson.  Observer J. E. McGaha.  0.36-m f/10.0
    Schmidt-Cassegrain + CCD.
H06 RAS Observatory, Mayhill.  Observer R. Hutsebaut.  0.30-m reflector + CCD.
J95 Great Shefford.  Observer P. Birtwhistle.  0.40-m f/6.0 Schmidt-Cassegrain
    + CCD.

Orbital elements:
2007 BD7                                            PHA, Earth MOID = 0.0378 AU
Epoch 2007 Apr. 10.0 TT = JDT 2454200.5                 MPC
M   8.35333              (2000.0)            P               Q
n   0.50369408     Peri.  219.87604     -0.91686471     +0.39847394
a   1.5644373      Node   343.55777     -0.34118101     -0.81344889
e   0.4989700      Incl.    4.87089     -0.20725497     -0.42369733
P   1.96           H   21.1           G   0.15           U   7
Residuals in seconds of arc
070123 699  0.4+  0.4-    070124 012  0.1-  0.1+    070124 012  0.2-  0.3+
070123 699  0.1+  0.4-    070124 012  0.0   0.1+    070124 854  0.0   0.0
070123 699  0.2-  0.7+    070124 012  0.1-  0.1-    070124 854  0.3+  0.1+
070123 699  0.1+  0.4+    070124 012  0.2+  0.5-    070124 H06  0.4+  0.3-
070123 J95  0.2-  0.0     070124 012  0.0   0.0     070124 H06  0.7+  0.2-
070123 J95  0.1-  0.1-    070124 012  0.0   0.4+    070124 H06  0.2-  0.0
070123 J95  0.1+  0.1+    070124 012  0.6-  0.6+
070123 J95  0.1+  0.2-    070124 854  0.1+  0.0

Ephemeris:
2007 BD7                 a,e,i = 1.56, 0.50, 5                   q = 0.7838
Date    TT    R. A. (2000) Decl.     Delta      r     Elong.  Phase     V
2007 01 20    08 15.67   +46 37.0    0.152    1.122   153.6    23.0    18.4
2007 01 22    08 11.39   +48 31.3    0.137    1.107   151.3    25.3    18.2
2007 01 24    08 05.66   +50 47.0    0.123    1.091   148.4    28.2    18.0
2007 01 26    07 57.71   +53 31.1    0.109    1.075   144.8    31.9    17.8
2007 01 28    07 46.07   +56 53.5    0.0955   1.060   140.2    36.5    17.6
2007 01 30    07 27.48   +61 07.1    0.0826   1.044   134.4    42.3    17.4
2007 02 01    06 53.59   +66 24.1    0.0705   1.029   126.9    49.9    17.3
2007 02 03    05 38.61   +72 23.7    0.0597   1.014   117.0    59.9    17.2
2007 02 05    02 43.87   +75 09.4    0.0509   0.999   103.8    73.4    17.2
2007 02 07    23 48.88   +66 31.2    0.0451   0.984    86.5    90.9    17.6
2007 02 09    22 33.83   +50 07.9    0.0437   0.970    66.6   111.0    18.5

Timothy B. Spahr             (C) Copyright 2007 MPC           M.P.E.C. 2007-B36

Read MPEC 2007-B35 Read MPEC 2007-B37


Our Web policy. Index to the CBAT/MPC/ICQ pages.


Valid HTML 4.01!